Lowell, ID

7:23 AM PDT on March 30, 2017 (GMT -0700)
Lowell

Weather History for KP69 - February, 2014

Change the Weather History Date:

Friday, February 21, 2014

  Actual Average Record
Temperature  
Mean Temperature 34 °F -  
Max Temperature 37 °F 44 °F 53 °F (2000)
Min Temperature 32 °F 28 °F 25 °F (2009)
Degree Days  
Heating Degree Days 31    
Moisture  
Dew Point 32 °F    
Average Humidity 94    
Maximum Humidity 96    
Minimum Humidity 89    
Precipitation  
Precipitation 0.06 in - - ()
Sea Level Pressure  
Sea Level Pressure 30.16 in    
Wind  
Wind Speed 0 mph (SSW)    
Max Wind Speed 5 mph    
Max Gust Speed -    
Averages and records for this station are not official NWS values.
T = Trace of Precipitation, MM = Missing Value Source: NWS Daily Summary

Daily Weather History Graph

Daily Weather History Graph

Search for Another Location

Airport or City:

Trip Planner

Search our weather history database for the weather conditions in past years. The results will help you decide how hot, cold, wet, or windy it might be!

Date:

Astronomy

Feb. 21, 2014 Rise Set
Actual Time 7:34 AM MST 6:17 PM MST
Civil Twilight 7:03 AM MST 6:47 PM MST
Nautical Twilight 6:29 AM MST 7:22 PM MST
Astronomical Twilight 5:54 AM MST 7:56 PM MST
Moon 12:35 AM MST (2/21) 10:40 AM MST (2/21)
Length of Visible Light 11h 43m
Length of Day
10h 43m
Waning Gibbous, 60% of the Moon is Illuminated
Feb 21
Waning Gibbous
Feb 22
Last Quarter
Mar 1
New
Mar 8
First Quarter
Mar 16
Full

Hourly Weather History & Observations

Time (MST) Temp. Windchill Dew Point Humidity Pressure Visibility Wind Dir Wind Speed Gust Speed Precip Events Conditions
12:52 AM 32.0 °F - 30.9 °F 96% 30.14 in - Calm Calm - N/A   Unknown
1:52 AM 32.0 °F - 30.9 °F 96% 30.13 in - Calm Calm - N/A   Unknown
2:52 AM 32.0 °F - 30.9 °F 96% 30.13 in - Calm Calm - N/A   Unknown
3:52 AM 32.0 °F - 30.9 °F 96% 30.13 in - Calm Calm - N/A   Unknown
4:52 AM 32.0 °F - 30.9 °F 96% 30.12 in - Calm Calm - N/A   Unknown
5:52 AM 33.1 °F - 30.9 °F 92% 30.15 in - Calm Calm - 0.03 in   Unknown
6:52 AM 32.0 °F - 30.9 °F 96% 30.14 in - Calm Calm - 0.01 in   Unknown
7:52 AM 32.0 °F - 30.9 °F 96% 30.15 in - Calm Calm - 0.01 in   Unknown
8:52 AM 33.1 °F - 32.0 °F 96% 30.17 in - Calm Calm - 0.01 in   Unknown
9:52 AM 33.1 °F - 32.0 °F 96% 30.16 in - Calm Calm - N/A   Unknown
10:52 AM 36.0 °F - 33.1 °F 89% 30.16 in - Calm Calm - N/A   Unknown
11:52 AM 36.0 °F - 33.1 °F 89% 30.16 in - Calm Calm - N/A   Unknown
12:52 PM 36.0 °F 33.3 °F 33.1 °F 89% 30.16 in - Variable 3.5 mph - N/A   Unknown
1:52 PM 36.0 °F 33.3 °F 34.0 °F 93% 30.14 in - South 3.5 mph - N/A   Unknown
2:52 PM 36.0 °F 32.1 °F 34.0 °F 93% 30.14 in - SSW 4.6 mph - N/A   Unknown
3:52 PM 36.0 °F - 34.0 °F 93% 30.15 in - Calm Calm - N/A   Unknown
4:52 PM 35.1 °F - 33.1 °F 92% 30.15 in - Calm Calm - N/A   Unknown
5:52 PM 34.0 °F 31.0 °F 33.1 °F 96% 30.15 in - SSW 3.5 mph - N/A   Unknown
6:52 PM 34.0 °F - 32.0 °F 92% 30.17 in - Calm Calm - N/A   Unknown
7:52 PM 34.0 °F - 32.0 °F 92% 30.19 in - Calm Calm - N/A   Unknown
8:52 PM 33.1 °F - 32.0 °F 96% 30.19 in - Calm Calm - N/A   Unknown
9:52 PM 33.1 °F - 32.0 °F 96% 30.20 in - Calm Calm - N/A   Unknown
10:52 PM 33.1 °F - 30.9 °F 92% 30.19 in - Calm Calm - N/A   Unknown
11:52 PM 33.1 °F - 32.0 °F 96% 30.19 in - Calm Calm - N/A   Unknown